Weather History for Nice, France

Change the Weather History Date:

Wednesday, October 30, 2013

  Actual Average Record
Temperature  
Mean Temperature 66 °F -  
Max Temperature 71 °F 60 °F 73 °F (2006)
Min Temperature 60 °F 47 °F 41 °F (1997)
Growing Degree Days 16 (Base 50)    
Moisture  
Dew Point 54 °F    
Average Humidity 66    
Maximum Humidity 78    
Minimum Humidity 42    
Precipitation  
Precipitation 0.00 in 0.14 in - ()
Sea Level Pressure  
Sea Level Pressure 29.97 in    
Wind  
Wind Speed 7 mph ()    
Max Wind Speed 14 mph    
Max Gust Speed -    
Visibility 6.3 miles    
Events      
Averages and records for this station are not official NWS values.
T = Trace of Precipitation, MM = Missing Value Source: Averaged Metar Reports

Daily Weather History Graph

Daily Weather History Graph

Search for Another Location

Airport:

Trip Planner

Search our weather history database for the weather conditions in past years. The results will help you decide how hot, cold, wet, or windy it might be!

Date:

Astronomy

Oct. 30, 2013 Rise Set
Actual Time 7:04 AM CET 5:24 PM CET
Civil Twilight 6:34 AM CET 5:54 PM CET
Nautical Twilight 6:00 AM CET 6:28 PM CET
Astronomical Twilight 5:27 AM CET 7:01 PM CET
Moon 2:29 AM CET (10/30) 3:08 PM CET (10/30)
Length of Visible Light 11h 19m
Length of Day
10h 20m
Waning Crescent, 19% of the Moon is Illuminated
Oct 30
Waning Crescent
Nov 3
New
Nov 10
First Quarter
Nov 17
Full
Nov 25
Last Quarter

Hourly Weather History & Observations

Time (CET) Temp. Dew Point Humidity Pressure Visibility Wind Dir Wind Speed Gust Speed Precip Events Conditions
12:00 AM 62.6 °F 55.4 °F 77% 29.95 in 6.2 mi WNW 8.1 mph - N/A   Mostly Cloudy
12:30 AM 62.6 °F 55.4 °F 77% 29.95 in 6.2 mi Variable 2.3 mph - N/A   Mostly Cloudy
1:00 AM 63 °F 54 °F 64% 29.94 in 22 mi North 6.9 mph - -   Partly Cloudy
1:00 AM 62.6 °F 53.6 °F 72% 29.92 in 6.2 mi North 6.9 mph - N/A   Mostly Cloudy
1:30 AM 62.6 °F 53.6 °F 72% 29.92 in 6.2 mi NW 9.2 mph - N/A   Mostly Cloudy
2:00 AM 62.6 °F 53.6 °F 72% 29.92 in 6.2 mi NW 5.8 mph - N/A   Mostly Cloudy
2:30 AM 62.6 °F 53.6 °F 72% 29.92 in 6.2 mi North 6.9 mph - N/A   Mostly Cloudy
3:00 AM 62.6 °F 53.6 °F 72% 29.92 in 6.2 mi NNW 5.8 mph - N/A   Mostly Cloudy
3:30 AM 62.6 °F 53.6 °F 72% 29.92 in 6.2 mi NNW 6.9 mph - N/A   Mostly Cloudy
4:00 AM 60.8 °F 53.6 °F 77% 29.92 in 6.2 mi NNW 6.9 mph - N/A   Scattered Clouds
4:30 AM 60.8 °F 53.6 °F 77% 29.92 in 6.2 mi NW 9.2 mph - N/A   Scattered Clouds
5:00 AM 62.6 °F 51.8 °F 68% 29.92 in 6.2 mi North 8.1 mph - N/A   Mostly Cloudy
5:30 AM 60.8 °F 53.6 °F 77% 29.92 in 6.2 mi NNW 9.2 mph - N/A   Mostly Cloudy
6:00 AM 62.6 °F 50.0 °F 63% 29.92 in 6.2 mi NW 6.9 mph - N/A   Scattered Clouds
6:30 AM 62.6 °F 50.0 °F 63% 29.92 in 6.2 mi NW 9.2 mph - N/A   Mostly Cloudy
7:00 AM 62 °F 51 °F 58% 29.94 in 25 mi NNW 8.1 mph - -   Scattered Clouds
7:00 AM 62.6 °F 51.8 °F 68% 29.92 in 6.2 mi NNW 8.1 mph - N/A   Mostly Cloudy
7:30 AM 62.6 °F 51.8 °F 68% 29.92 in 6.2 mi NNW 10.4 mph - N/A   Mostly Cloudy
8:00 AM 62.6 °F 50.0 °F 63% 29.95 in 6.2 mi NNW 8.1 mph - N/A   Mostly Cloudy
8:30 AM 62.6 °F 51.8 °F 68% 29.95 in 6.2 mi NW 10.4 mph - N/A   Mostly Cloudy
9:00 AM 64.4 °F 50.0 °F 59% 29.95 in 6.2 mi NNW 11.5 mph - N/A   Mostly Cloudy
9:34 AM 64.4 °F 50.0 °F 59% 29.95 in 6.2 mi NNW 8.1 mph - N/A   Mostly Cloudy
10:00 AM 66.2 °F 51.8 °F 60% 29.95 in 6.2 mi NNW 8.1 mph - N/A   Mostly Cloudy
10:30 AM 68.0 °F 51.8 °F 56% 29.98 in 6.2 mi NNW 5.8 mph - N/A   Mostly Cloudy
11:00 AM 68.0 °F 51.8 °F 56% 29.98 in 6.2 mi NNW 9.2 mph - N/A   Mostly Cloudy
11:30 AM 68.0 °F 51.8 °F 56% 29.98 in 6.2 mi NW 11.5 mph - N/A   Mostly Cloudy
12:00 PM 68.0 °F 51.8 °F 56% 29.98 in 6.2 mi NNW 9.2 mph - N/A   Mostly Cloudy
12:30 PM 69.8 °F 53.6 °F 56% 29.98 in 6.2 mi NNW 4.6 mph - N/A   Mostly Cloudy
1:00 PM 71 °F 53 °F 42% 29.99 in 31 mi North 1.2 mph - -   Scattered Clouds
1:00 PM 69.8 °F 51.8 °F 53% 29.98 in 6.2 mi Variable 3.5 mph - N/A   Mostly Cloudy
1:30 PM 71.6 °F 53.6 °F 53% 29.98 in 6.2 mi Variable 2.3 mph - N/A   Mostly Cloudy
2:00 PM 69.8 °F 55.4 °F 60% 29.98 in 6.2 mi Variable 2.3 mph - N/A   Mostly Cloudy
2:30 PM 69.8 °F 55.4 °F 60% 29.98 in 6.2 mi East 3.5 mph - N/A   Mostly Cloudy
3:00 PM 69.8 °F 53.6 °F 56% 29.98 in 6.2 mi Variable 1.2 mph - N/A   Mostly Cloudy
3:30 PM 69.8 °F 55.4 °F 60% 29.98 in 6.2 mi East 5.8 mph - N/A   Mostly Cloudy
4:00 PM 69.8 °F 60.8 °F 73% 29.98 in 6.2 mi East 8.1 mph - N/A   Scattered Clouds
4:30 PM 69.8 °F 60.8 °F 73% 29.98 in 6.2 mi ENE 12.7 mph - N/A   Scattered Clouds
5:00 PM 68.0 °F 60.8 °F 78% 29.98 in 6.2 mi ENE 13.8 mph - N/A   Scattered Clouds
5:30 PM 68.0 °F 60.8 °F 78% 29.98 in 6.2 mi ENE 9.2 mph - N/A   Scattered Clouds
6:00 PM 66.2 °F 59.0 °F 78% 30.01 in 6.2 mi North 4.6 mph - N/A   Partly Cloudy
6:30 PM 64.4 °F 57.2 °F 77% 30.01 in 6.2 mi NW 9.2 mph - N/A   Scattered Clouds
7:00 PM 64 °F 56 °F 67% 30.02 in 9 mi NNW 8.1 mph - -   Scattered Clouds
7:00 PM 64.4 °F 55.4 °F 73% 30.01 in 6.2 mi NNW 8.1 mph - N/A   Scattered Clouds
7:30 PM 62.6 °F 53.6 °F 72% 30.01 in 6.2 mi NNW 6.9 mph - N/A   Scattered Clouds
8:00 PM 62.6 °F 53.6 °F 72% 30.04 in 6.2 mi NNW 8.1 mph - N/A   Scattered Clouds
8:30 PM 62.6 °F 53.6 °F 72% 30.04 in 6.2 mi NNW 9.2 mph - N/A   Scattered Clouds
9:00 PM 64.4 °F 53.6 °F 68% 30.04 in 6.2 mi NNW 9.2 mph - N/A   Mostly Cloudy
9:30 PM 64.4 °F 53.6 °F 68% 30.04 in 6.2 mi NNW 9.2 mph - N/A   Mostly Cloudy
10:00 PM 64.4 °F 53.6 °F 68% 30.04 in 6.2 mi NNW 6.9 mph - N/A   Mostly Cloudy
10:30 PM 64.4 °F 51.8 °F 64% 30.06 in 6.2 mi NNW 6.9 mph - N/A   Mostly Cloudy
11:00 PM 64.4 °F 53.6 °F 68% 30.06 in 6.2 mi NNW 8.1 mph - N/A   Mostly Cloudy
11:30 PM 64.4 °F 51.8 °F 64% 30.06 in 6.2 mi NNW 9.2 mph - N/A   Mostly Cloudy